This demonstration page uses our WeatherBlox Daily Observations layout. Learn more.

Left ArrowRight Arrow

40.92945, -100.16068

Hourly Observations for January 22, 2021

Temp ( °F °C ) Dew Point ( °F °C ) Humidity (%) Winds ( mph kmh ) Pressure ( in mb ) Visibility ( mi km ) Precip ( " mm )
12:15 am 00:15 Cloudy 30 -0.9 18 -7.6 61 61 NE 9 15 30.23 1024 10 16.0934 0 0
12:35 am 00:35 Cloudy 31 -0.8 18 -7.7 60 60 NE 8 13 30.23 1024 10 16.0934 0 0
12:55 am 00:55 Mostly Cloudy 30 -1.1 18 -7.7 61 61 NE 7 11 30.22 1023 10 16.0934 0 0
1:15 am 01:15 Cloudy 29 -1.4 18 -7.7 63 63 NE 8 13 30.22 1023 10 16.0934 0 0
1:35 am 01:35 Cloudy 29 -1.6 18 -7.6 64 64 NE 8 13 30.22 1023 10 16.0934 0 0
1:55 am 01:55 Cloudy 29 -1.8 18 -7.6 65 65 NE 9 15 30.23 1024 10 16.0934 0 0
2:15 am 02:15 Cloudy 28 -2 18 -7.6 66 66 ENE 8 13 30.23 1024 10 16.0934 0 0
2:35 am 02:35 Cloudy 28 -2 19 -7.5 66 66 ENE 10 17 30.24 1024 10 16.0934 0 0
2:55 am 02:55 Cloudy 28 -2.1 19 -7.5 67 67 ENE 8 13 30.24 1024 10 16.0934 0 0
3:15 am 03:15 Cloudy 28 -2.2 19 -7.5 67 67 ENE 9 15 30.23 1024 10 16.0934 0 0
3:35 am 03:35 Cloudy 28 -2.5 19 -7.5 69 69 ENE 9 15 30.24 1024 10 16.0934 0 0
3:55 am 03:55 Cloudy 28 -2.5 19 -7.2 70 70 ENE 6 9 30.25 1024 10 16.0934 0 0
4:15 am 04:15 Cloudy 27 -2.7 19 -7.4 70 70 ENE 7 11 30.25 1025 10 16.0934 0 0
4:35 am 04:35 Cloudy 27 -3 19 -7.5 71 71 ENE 7 11 30.25 1024 10 16.0934 0 0
4:55 am 04:55 Cloudy 27 -3 19 -7.5 71 71 ENE 9 15 30.25 1024 10 16.0934 0 0
5:15 am 05:15 Cloudy 26 -3.3 18 -7.7 72 72 ENE 9 15 30.26 1025 10 16.0934 0 0
5:35 am 05:35 Cloudy 26 -3.5 18 -7.6 74 74 E 8 13 30.26 1025 10 16.0934 0 0
5:55 am 05:55 Cloudy 26 -3.6 19 -7.3 76 76 ENE 7 11 30.26 1025 10 16.0934 0 0
6:15 am 06:15 Cloudy 25 -3.7 19 -7.3 76 76 ENE 7 11 30.27 1025 10 16.0934 0 0
6:35 am 06:35 Cloudy 25 -4 19 -7.1 79 79 ENE 6 9 30.28 1025 10 16.0934 0 0
6:55 am 06:55 Mostly Cloudy 25 -4.1 19 -7.1 80 80 ENE 7 11 30.29 1026 10 16.0934 0 0
7:15 am 07:15 Partly Cloudy 24 -4.2 19 -7.1 80 80 E 7 11 30.29 1026 10 16.0934 0 0
7:35 am 07:35 Mostly Cloudy 24 -4.3 19 -7.2 80 80 E 7 11 30.3 1026 10 16.0934 0 0
7:55 am 07:55 Cloudy 24 -4.3 19 -7.1 81 81 E 6 9 30.3 1026 10 16.0934 0 0
8:15 am 08:15 Cloudy 24 -4.3 19 -7.3 80 80 ESE 6 9 30.31 1026 10 16.0934 0 0
8:35 am 08:35 Cloudy 24 -4.3 19 -7.4 79 79 E 6 9 30.32 1027 10 16.0934 0 0
8:55 am 08:55 Cloudy 24 -4.3 19 -7.5 79 79 E 5 7 30.33 1027 10 16.0934 0 0
9:15 am 09:15 Cloudy 25 -4.1 19 -7.4 78 78 SE 3 6 30.34 1027 10 16.0934 0 0
9:35 am 09:35 Cloudy 25 -4 19 -7.4 77 77 SSE 5 7 30.34 1027 10 16.0934 0 0
9:55 am 09:55 Cloudy 25 -3.7 19 -7.3 76 76 SE 6 9 30.35 1028 10 16.0934 0 0
10:15 am 10:15 Cloudy 26 -3.5 19 -7.2 76 76 ESE 5 7 30.34 1028 10 16.0934 0 0
10:35 am 10:35 Mostly Cloudy 26 -3.2 19 -7.1 75 75 ESE 6 9 30.33 1027 10 16.0934 0 0
10:55 am 10:55 Mostly Cloudy 27 -2.6 19 -7 72 72 ESE 7 11 30.33 1027 10 16.0934 0 0
11:15 am 11:15 Cloudy 28 -2.2 20 -6.8 71 71 ESE 5 7 30.33 1027 10 16.0934 0 0
11:35 am 11:35 Cloudy 28 -2 20 -6.6 71 71 E 6 9 30.33 1027 10 16.0934 0 0
11:55 am 11:55 Cloudy 29 -1.6 20 -6.6 69 69 ESE 5 7 30.31 1027 10 16.0934 0 0
12:15 pm 12:15 Cloudy 30 -1.2 20 -6.4 68 68 ESE 5 7 30.3 1026 10 16.0934 0 0
12:35 pm 12:35 Cloudy 30 -1 20 -6.5 67 67 ESE 6 9 30.29 1026 10 16.0934 0 0
12:55 pm 12:55 Cloudy 31 -0.7 20 -6.5 65 65 SE 6 9 30.28 1026 10 16.0934 0 0
1:15 pm 13:15 Cloudy 31 -0.6 20 -6.6 64 64 SE 7 11 30.27 1025 10 16.0934 0 0
1:35 pm 13:35 Cloudy 31 -0.4 20 -6.6 63 63 ESE 8 13 30.26 1025 10 16.0934 0 0
1:55 pm 13:55 Cloudy 32 0 20 -6.5 62 62 SE 8 13 30.24 1024 10 16.0934 0 0
2:15 pm 14:15 Cloudy 32 0 20 -6.5 62 62 ESE 10 17 30.23 1024 10 16.0934 0 0
2:35 pm 14:35 Cloudy 32 0.2 20 -6.4 62 62 ESE 10 17 30.23 1024 10 16.0934 0 0
2:55 pm 14:55 Cloudy 33 0.4 20 -6.4 61 61 ESE 9 15 30.22 1023 10 16.0934 0 0
3:15 pm 15:15 Mostly Cloudy 33 0.5 20 -6.4 60 60 ESE 7 11 30.22 1023 10 16.0934 0 0
3:35 pm 15:35 Mostly Cloudy 32 0.2 20 -6.5 61 61 SE 10 17 30.23 1024 10 16.0934 0 0
3:55 pm 15:55 Mostly Cloudy 33 0.3 20 -6.5 61 61 SE 9 15 30.22 1024 10 16.0934 0 0
4:15 pm 16:15 Cloudy 32 0.2 21 -6.3 62 62 SE 9 15 30.23 1024 10 16.0934 0 0
4:35 pm 16:35 Cloudy 32 0 20 -6.4 62 62 SE 8 13 30.23 1024 10 16.0934 0 0
4:55 pm 16:55 Cloudy 32 0 20 -6.5 62 62 SE 10 17 30.23 1024 10 16.0934 0 0
5:15 pm 17:15 Cloudy 32 0 20 -6.5 62 62 SE 12 19 30.23 1024 10 16.0934 0 0
5:35 pm 17:35 Cloudy 31 -0.3 20 -6.5 63 63 ESE 12 19 30.23 1024 10 16.0934 0 0
5:55 pm 17:55 Cloudy 31 -0.8 20 -6.8 64 64 ESE 12 19 30.24 1024 10 16.0934 0 0
6:15 pm 18:15 Cloudy 30 -1.2 20 -6.9 66 66 SE 10 17 30.24 1024 10 16.0934 0 0
6:35 pm 18:35 Partly Cloudy 28 -2 19 -7 69 69 SE 12 19 30.25 1024 10 16.0934 0 0
6:55 pm 18:55 Clear 28 -2.5 19 -7.1 71 71 SE 10 17 30.25 1024 10 16.0934 0 0
7:15 pm 19:15 Clear 27 -3 19 -7.1 74 74 ESE 10 17 30.26 1025 10 16.0934 0 0
7:35 pm 19:35 Clear 26 -3.1 19 -7.2 74 74 SE 9 15 30.26 1025 10 16.0934 0 0
7:55 pm 19:55 Clear 26 -3.5 19 -7.3 75 75 ESE 12 19 30.26 1025 10 16.0934 0 0
8:15 pm 20:15 Clear 25 -3.8 19 -7.5 76 76 SE 12 19 30.27 1025 10 16.0934 0 0
8:35 pm 20:35 Clear 25 -4.1 19 -7.5 77 77 SE 12 19 30.26 1025 10 16.0934 0 0
8:55 pm 20:55 Clear 24 -4.5 18 -7.7 79 79 SE 12 19 30.26 1025 10 16.0934 0 0
9:15 pm 21:15 Clear 24 -4.6 18 -7.7 79 79 SE 13 20 30.25 1025 10 16.0934 0 0
9:35 pm 21:35 Clear 23 -5.1 18 -8 80 80 SE 9 15 30.27 1025 10 16.0934 0 0
9:55 pm 21:55 Clear 22 -5.5 18 -8 83 83 SE 10 17 30.26 1025 10 16.0934 0 0
10:15 pm 22:15 Clear 22 -5.6 17 -8.1 83 83 SE 9 15 30.27 1025 10 16.0934 0 0
10:35 pm 22:35 Clear 22 -5.7 17 -8.1 83 83 SE 10 17 30.27 1025 10 16.0934 0 0
10:55 pm 22:55 Clear 21 -6 17 -8.2 85 85 SE 12 19 30.27 1025 10 16.0934 0 0
11:15 pm 23:15 Clear 21 -6 17 -8.2 85 85 SE 12 19 30.27 1025 10 16.0934 0 0
11:35 pm 23:35 Clear 21 -6.1 17 -8.3 85 85 SE 10 17 30.27 1025 10 16.0934 0 0
11:55 pm 23:55 Clear 21 -6 17 -8.2 85 85 SE 14 22 30.27 1025 10 16.0934 0 0

Powered by AerisWeather